• In Russia
  • List of Countries
  • For 7 days
  • Water Temperature
  • Satellite Maps
  • Weather Map
  • Weather Widgets
  • user-avatar
    Login

    Hourly Weather Swansea

    Today, 26 September, Wednesday

    Time Temperature Precipitation Wind Pressure Humidity
    00:00 +10°C° 0 mm 4 mps 773 mmHg 89%
    01:00 +10°C° 0 mm 4 mps 773 mmHg 89%
    02:00 +8°C° 0 mm 4 mps 773 mmHg 89%
    03:00 +8°C° 0 mm 4 mps 773 mmHg 88%
    04:00 +9°C° 0 mm 3 mps 773 mmHg 88%
    05:00 +9°C° 0 mm 3 mps 773 mmHg 88%
    06:00 +9°C° 0 mm 3 mps 773 mmHg 88%
    07:00 +11°C° 0 mm 3 mps 773 mmHg 85%
    08:00 +12°C° 0 mm 3 mps 773 mmHg 81%
    09:00 +14°C° 0 mm 3 mps 773 mmHg 78%
    10:00 +16°C° 0 mm 3 mps 773 mmHg 76%
    11:00 +17°C° 0 mm 3 mps 773 mmHg 73%
    12:00 +19°C° 0 mm 3 mps 773 mmHg 71%
    13:00 +19°C° 0 mm 2 mps 773 mmHg 72%
    14:00 +19°C° 0 mm 2 mps 772 mmHg 73%
    15:00 +19°C° 0 mm 2 mps 772 mmHg 74%
    16:00 +18°C° 0 mm 2 mps 772 mmHg 79%
    17:00 +16°C° 0 mm 2 mps 772 mmHg 83%
    18:00 +15°C° 0 mm 1 mps 772 mmHg 88%
    19:00 +14°C° 0 mm 1 mps 772 mmHg 89%
    20:00 +14°C° 0 mm 1 mps 772 mmHg 89%
    21:00 +13°C° 0 mm 1 mps 772 mmHg 90%
    22:00 +13°C° 0 mm 1 mps 772 mmHg 90%
    23:00 +12°C° 0 mm 1 mps 771 mmHg 89%

    Tomorrow, 27 September, Thursday

    Time Temperature Precipitation Wind Pressure Humidity
    00:00 +12°C° 0 mm 1 mps 771 mmHg 89%
    01:00 +12°C° 0 mm 1 mps 771 mmHg 89%
    02:00 +12°C° 0 mm 1 mps 770 mmHg 89%
    03:00 +12°C° 0 mm 2 mps 770 mmHg 89%
    04:00 +10°C° 0 mm 2 mps 770 mmHg 89%
    05:00 +10°C° 0 mm 2 mps 769 mmHg 89%
    06:00 +10°C° 0 mm 2 mps 769 mmHg 90%
    07:00 +12°C° 0 mm 2 mps 769 mmHg 85%
    08:00 +14°C° 0 mm 1 mps 769 mmHg 80%
    09:00 +16°C° 0 mm 1 mps 769 mmHg 75%
    10:00 +18°C° 0 mm 1 mps 768 mmHg 71%
    11:00 +18°C° 0 mm 2 mps 768 mmHg 67%
    12:00 +19°C° 0 mm 2 mps 768 mmHg 63%
    13:00 +19°C° 0 mm 2 mps 768 mmHg 65%
    14:00 +19°C° 0 mm 3 mps 767 mmHg 67%
    15:00 +19°C° 0 mm 3 mps 767 mmHg 69%
    16:00 +17°C° 0 mm 3 mps 767 mmHg 74%
    17:00 +14°C° 0 mm 3 mps 767 mmHg 80%
    18:00 +12°C° 0 mm 3 mps 767 mmHg 85%
    19:00 +12°C° 0 mm 3 mps 768 mmHg 86%
    20:00 +11°C° 0 mm 4 mps 768 mmHg 86%
    21:00 +11°C° 0 mm 4 mps 768 mmHg 87%
    22:00 +11°C° 0 mm 4 mps 768 mmHg 89%
    23:00 +11°C° 0 mm 4 mps 769 mmHg 90%

    Day after tomorrow, 28 September, Friday

    Time Temperature Precipitation Wind Pressure Humidity
    00:00 +11°C° 0 mm 4 mps 769 mmHg 92%
    01:00 +9°C° 0 mm 5 mps 769 mmHg 92%
    02:00 +9°C° 0 mm 5 mps 769 mmHg 91%
    03:00 +9°C° 0 mm 5 mps 769 mmHg 90%
    04:00 +9°C° 0 mm 5 mps 769 mmHg 90%
    05:00 +9°C° 0 mm 5 mps 770 mmHg 90%
    06:00 +9°C° 0 mm 6 mps 770 mmHg 89%
    07:00 +10°C° 0 mm 6 mps 771 mmHg 85%
    08:00 +10°C° 0 mm 6 mps 771 mmHg 82%
    09:00 +11°C° 0 mm 7 mps 772 mmHg 78%
    10:00 +11°C° 0 mm 6 mps 772 mmHg 74%
    11:00 +13°C° 0 mm 6 mps 772 mmHg 71%
    12:00 +14°C° 0 mm 6 mps 772 mmHg 67%
    13:00 +14°C° 0 mm 6 mps 772 mmHg 67%
    14:00 +14°C° 0 mm 5 mps 772 mmHg 66%
    15:00 +14°C° 0 mm 5 mps 772 mmHg 66%
    16:00 +13°C° 0 mm 5 mps 772 mmHg 70%
    17:00 +12°C° 0 mm 5 mps 772 mmHg 75%
    18:00 +11°C° 0 mm 4 mps 772 mmHg 79%
    19:00 +10°C° 0 mm 4 mps 773 mmHg 80%
    20:00 +8°C° 0 mm 4 mps 773 mmHg 81%
    21:00 +7°C° 0 mm 4 mps 773 mmHg 82%
    22:00 +7°C° 0 mm 4 mps 773 mmHg 82%
    23:00 +6°C° 0 mm 4 mps 773 mmHg 82%

    29 September, Saturday

    Time Temperature Precipitation Wind Pressure Humidity
    00:00 +6°C° 0 mm 4 mps 773 mmHg 83%
    01:00 +5°C° 0 mm 3 mps 773 mmHg 84%
    02:00 +5°C° 0 mm 3 mps 773 mmHg 85%
    03:00 +5°C° 0 mm 3 mps 773 mmHg 86%
    04:00 +5°C° 0 mm 3 mps 773 mmHg 86%
    05:00 +4°C° 0 mm 3 mps 773 mmHg 87%
    06:00 +4°C° 0 mm 3 mps 773 mmHg 87%
    07:00 +7°C° 0 mm 3 mps 773 mmHg 82%
    08:00 +9°C° 0 mm 3 mps 773 mmHg 77%
    09:00 +10°C° 0 mm 3 mps 773 mmHg 72%
    10:00 +13°C° 0 mm 2 mps 772 mmHg 68%
    11:00 +14°C° 0 mm 2 mps 772 mmHg 64%
    12:00 +15°C° 0 mm 2 mps 772 mmHg 60%
    13:00 +15°C° 0 mm 2 mps 771 mmHg 60%
    14:00 +15°C° 0 mm 2 mps 771 mmHg 60%
    15:00 +15°C° 0 mm 2 mps 770 mmHg 60%
    16:00 +14°C° 0 mm 2 mps 770 mmHg 66%
    17:00 +12°C° 0 mm 2 mps 770 mmHg 71%
    18:00 +10°C° 0 mm 2 mps 769 mmHg 77%
    19:00 +9°C° 0 mm 2 mps 769 mmHg 78%
    20:00 +9°C° 0 mm 2 mps 770 mmHg 79%
    21:00 +8°C° 0 mm 2 mps 770 mmHg 80%
    22:00 +8°C° 0 mm 2 mps 769 mmHg 81%
    23:00 +7°C° 0 mm 2 mps 769 mmHg 81%

    30 September, Sunday

    Time Temperature Precipitation Wind Pressure Humidity
    00:00 +7°C° 0 mm 2 mps 769 mmHg 82%
    01:00 +7°C° 0 mm 2 mps 768 mmHg 82%
    02:00 +7°C° 0 mm 1 mps 768 mmHg 83%
    03:00 +7°C° 0 mm 1 mps 768 mmHg 83%
    04:00 +7°C° 0 mm 1 mps 768 mmHg 83%
    05:00 +6°C° 0 mm 2 mps 767 mmHg 84%
    06:00 +6°C° 0 mm 2 mps 767 mmHg 84%
    07:00 +8°C° 0 mm 2 mps 767 mmHg 81%
    08:00 +10°C° 0 mm 2 mps 767 mmHg 77%
    09:00 +12°C° 0 mm 2 mps 767 mmHg 73%
    10:00 +13°C° 0 mm 2 mps 767 mmHg 71%
    11:00 +13°C° 0 mm 3 mps 767 mmHg 69%
    12:00 +14°C° 0 mm 3 mps 767 mmHg 67%
    13:00 +14°C° 0 mm 4 mps 767 mmHg 70%
    14:00 +14°C° 0 mm 4 mps 767 mmHg 74%
    15:00 +14°C° 0 mm 5 mps 767 mmHg 77%
    16:00 +13°C° 0 mm 5 mps 767 mmHg 80%
    17:00 +12°C° 0 mm 5 mps 767 mmHg 84%
    18:00 +10°C° 0 mm 5 mps 767 mmHg 88%
    19:00 +9°C° 0 mm 5 mps 767 mmHg 88%
    20:00 +8°C° 0 mm 5 mps 768 mmHg 89%
    21:00 +8°C° 0 mm 5 mps 768 mmHg 89%
    22:00 +7°C° 0 mm 5 mps 768 mmHg 88%
    23:00 +7°C° 0 mm 5 mps 768 mmHg 87%

    1 October, Monday

    Time Temperature Precipitation Wind Pressure Humidity
    00:00 +6°C° 0 mm 5 mps 768 mmHg 86%
    01:00 +6°C° 0 mm 5 mps 768 mmHg 85%
    02:00 +6°C° 0 mm 5 mps 769 mmHg 84%
    03:00 +6°C° 0 mm 5 mps 769 mmHg 83%
    04:00 +6°C° 0 mm 5 mps 769 mmHg 85%
    05:00 +6°C° 0 mm 4 mps 769 mmHg 86%
    06:00 +6°C° 0 mm 4 mps 770 mmHg 87%
    07:00 +7°C° 0 mm 5 mps 770 mmHg 84%
    08:00 +9°C° 0 mm 5 mps 770 mmHg 80%
    09:00 +10°C° 0 mm 5 mps 771 mmHg 77%
    10:00 +12°C° 0 mm 5 mps 771 mmHg 72%
    11:00 +12°C° 0 mm 4 mps 771 mmHg 68%
    12:00 +13°C° 0 mm 4 mps 771 mmHg 63%
    13:00 +13°C° 0 mm 4 mps 771 mmHg 64%
    14:00 +13°C° 0 mm 4 mps 771 mmHg 64%
    15:00 +13°C° 0 mm 4 mps 771 mmHg 64%
    16:00 +11°C° 0 mm 4 mps 771 mmHg 70%
    17:00 +10°C° 0 mm 4 mps 771 mmHg 76%
    18:00 +7°C° 0 mm 4 mps 771 mmHg 82%
    19:00 +8°C° 0 mm 3 mps 771 mmHg 83%
    20:00 +7°C° 0 mm 3 mps 771 mmHg 84%
    21:00 +7°C° 0 mm 3 mps 771 mmHg 85%
    22:00 +7°C° 0 mm 3 mps 770 mmHg 83%
    23:00 +8°C° 0 mm 3 mps 770 mmHg 80%
    Show more